Location: Franzen
(48.6167°N, 15.3833°E)
Time: 08:58:01
(UTC+00:00)

Cosmos 1603 - Pass Details

Date: 22 April 2021
Orbit: 830 x 860 km, 71.0° (Epoch: 16 May)

Event Time Altitude Azimuth Distance (km) Brightness Sun altitude
Rises 20:46:23 0° 333° (NNW) 3,439 8.3 -22.4°
Reaches altitude 10° 20:48:53 10° 336° (NNW) 2,496 7.2 -22.6°
Maximum altitude 20:54:35 64° 58° (ENE) 939 3.8 -23.2°
Enters shadow 20:55:54 50° 113° (ESE) 1,079 3.9 -23.3°
